Temperature
21 20 21 20 20 20 20 20 20 20 20 20 20 20 20 20 20 20 19 19 19 19 19 18 18 18 18 18 18 18 18 18 18 18 18 18 18 18 18 18 17 17 17
21 20 21 20 20 20 20 20 20 20 20 20 20 20 20 20 20 19 19 19 19 19 19 19 18 18 18 18 18 18 18 18 18 18 18 18 18 18 18 17 17 17 17
20 20 21 20 20 20 20 20 20 20 20 20 20 20 20 19 19 19 19 19 19 19 19 19 18 18 18 19 18 18 18 18 18 18 17 17 17 18 17 17 17 18 18
20 20 20 20 20 20 20 20 20 20 20 20 20 20 19 19 19 19 19 19 19 19 19 19 18 18 18 19 18 18 18 18 18 17 17 17 17 17 17 17 17 17 18
20 19 20 20 20 20 20 20 20 20 20 20 19 19 19 19 19 19 19 19 19 18 18 18 18 18 18 18 18 18 18 18 18 17 17 17 17 18 17 17 17 17 17
19 19 19 20 20 20 19 19 19 19 19 19 19 19 19 19 19 19 19 19 19 18 18 18 18 18 18 18 18 18 18 18 17 17 17 17 17 18 17 17 17 17 17
20 19 19 20 19 19 19 19 19 19 19 19 19 19 19 19 19 19 19 19 19 18 18 18 18 18 18 18 18 18 18 18 17 17 17 17 17 18 17 17 17 17 17
20 19 19 19 19 19 19 19 19 19 19 19 19 19 19 18 18 18 18 18 18 18 18 18 18 18 18 18 18 18 18 18 17 17 17 17 17 18 17 17 17 17 17
20 19 19 19 19 19 19 19 19 19 19 19 19 18 18 18 18 18 18 18 18 18 18 18 18 18 18 18 18 18 18 18 17 17 17 17 18 18 17 17 17 17 17
19 19 18 19 18 18 18 19 19 19 19 19 19 18 18 18 18 18 18 18 18 18 18 18 18 18 18 18 18 18 18 18 17 17 17 17 18 18 18 17 17 17 17
18 18 18 18 18 18 18 18 18 19 19 19 18 18 18 18 17 17 18 17 18 18 18 18 18 17 17 17 18 18 18 17 17 18 17 17 18 18 18 18 17 17 17
18 18 18 18 18 18 18 18 18 18 18 18 18 18 18 17 18 17 17 18 18 18 18 18 17 17 17 17 17 17 17 17 17 17 17 18 18 18 18 18 18 17 17
19 19 19 19 18 18 18 18 18 18 18 18 18 18 18 18 18 17 17 17 17 17 17 17 17 17 17 17 17 17 17 17 17 17 17 17 18 18 18 18 18 18 17
19 19 19 19 19 18 18 18 18 18 18 18 17 17 17 17 17 17 17 17 17 17 17 17 17 17 17 17 17 17 17 17 17 17 17 17 17 17 18 17 17 17 17
18 19 19 19 18 18 18 18 18 18 17 17 17 17 17 17 17 17 17 17 17 17 16 17 17 16 16 16 16 16 16 17 17 16 17 17 17 17 17 17 17 17 17
18 18 18 18 18 18 18 18 17 17 17 17 16 16 17 16 16 16 16 16 16 16 16 16 16 16 16 16 16 16 16 16 16 16 16 16 17 17 17 17 17 17 17
18 18 18 18 18 18 18 17 17 17 16 16 16 16 16 16 16 16 16 16 16 16 16 16 16 16 16 16 16 16 16 16 16 16 16 16 16 17 17 17 17 17 17
18 18 18 18 18 18 17 17 17 16 16 16 15 15 15 15 15 15 15 15 15 15 15 15 15 15 15 15 16 16 16 16 16 16 16 16 16 16 16 17 17 17 17
18 18 18 18 18 17 17 17 16 16 16 15 15 15 14 14 14 14 14 14 14 15 15 15 15 15 15 15 15 15 15 15 15 16 16 16 16 16 16 16 16 17 17
17 17 17 18 17 17 17 16 16 16 15 15 14 14 14 13 13 13 14 13 14 14 14 14 14 14 14 14 15 16 15 16 16 16 16 16 16 16 16 16 16 16 17
17 17 17 17 17 17 16 16 16 15 15 14 14 13 13 12 12 12 13 12 13 13 13 14 14 14 15 14 15 15 16 16 16 16 16 16 16 16 16 15 16 16 16
18 17 17 17 17 17 16 16 16 15 14 14 13 12 12 12 12 12 12 12 12 12 12 13 13 14 14 14 14 15 16 17 16 16 16 16 16 16 15 15 15 16 16
18 18 17 17 17 17 16 15 15 15 14 14 13 13 12 11 11 11 11 11 11 12 13 12 12 13 14 14 14 15 16 17 16 16 16 16 15 15 15 15 15 15 15
18 18 17 17 17 17 16 15 15 15 14 14 13 12 12 11 11 11 11 11 11 11 11 12 12 12 12 14 14 14 14 14 14 16 16 16 15 15 15 15 15 15 15
19 18 18 17 17 17 16 16 15 14 14 14 13 12 11 11 11 10 10 10 10 11 10 11 11 11 12 13 14 14 14 14 14 14 15 15 15 15 15 15 15 15 15
19 18 18 17 17 17 16 15 15 14 13 13 12 12 12 12 11 11 10 10 10 10 10 10 10 11 11 11 12 13 13 14 14 15 15 15 15 15 15 15 15 15 15
Wind_Speed
12 15 17 13 11 10 10 11 13 13 14 14 14 13 12 12 11 10 10 9 8 6 5 5 5 6 6 6 6 7 7 7 7 7 8 8 9 10 12 14 15 17 19
15 17 17 14 12 11 11 11 12 13 13 13 13 13 12 11 10 9 9 8 6 5 5 4 4 5 5 5 6 6 6 6 6 6 7 9 10 11 12 12 11 18 18
16 17 17 14 12 11 11 11 12 12 13 13 13 12 11 10 9 8 8 7 6 5 4 3 3 4 4 5 5 5 5 5 5 5 5 8 11 10 11 11 16 19 18
16 17 16 15 13 11 11 10 11 11 12 12 12 11 10 9 8 8 7 6 5 5 4 3 3 3 4 4 4 4 4 4 4 4 5 7 10 12 11 13 16 17 17
15 15 16 15 13 12 11 10 10 10 10 10 10 10 9 8 8 7 6 6 6 5 5 5 4 4 4 4 4 3 3 4 3 6 4 6 8 11 11 13 14 16 16
15 15 17 14 13 12 11 10 10 10 9 9 9 9 8 8 7 7 6 6 6 6 6 5 5 5 5 5 4 3 3 3 7 3 4 4 8 10 10 12 13 15 15
14 14 17 14 13 12 11 10 10 9 9 9 8 8 8 8 8 8 7 7 7 6 6 6 6 6 6 6 6 5 4 3 6 2 3 3 7 10 9 10 12 13 14
13 12 15 13 11 11 10 9 9 8 8 8 8 8 8 8 8 8 8 8 8 7 7 7 7 7 7 8 7 7 6 7 7 4 3 3 9 8 8 9 10 12 13
11 11 11 12 11 9 8 7 6 6 6 6 6 6 7 7 8 9 9 9 9 9 9 8 8 9 9 9 9 8 8 8 8 5 5 4 9 8 8 9 10 11 12
9 8 8 7 8 8 8 6 4 3 2 3 4 5 6 8 10 10 10 11 10 9 9 10 10 10 10 10 10 10 9 9 12 8 6 5 9 10 10 10 11 11 12
7 6 5 6 5 4 4 5 4 3 2 4 6 7 8 9 9 10 11 7 9 10 10 11 11 10 10 12 12 11 10 10 11 9 7 7 10 11 12 12 13 13 13
9 6 5 4 5 4 3 3 1 1 1 4 4 4 6 6 7 8 3 6 10 11 11 12 11 11 12 12 13 13 11 11 11 9 8 9 10 12 13 14 15 16 16
9 7 6 5 4 3 3 2 0 1 1 3 4 4 6 6 7 8 6 7 9 11 11 10 11 12 12 10 9 11 11 11 10 10 9 12 12 13 13 15 16 18 18
8 7 6 5 4 3 2 2 1 1 2 3 3 4 5 4 5 5 5 6 6 6 6 7 7 9 10 10 11 11 12 12 12 11 9 11 13 14 14 14 16 19 21
7 7 5 4 4 4 3 2 2 2 3 4 5 6 6 5 4 5 4 5 6 5 5 5 6 7 8 9 11 12 12 13 14 13 11 13 15 16 15 16 16 18 20
7 6 6 6 5 4 4 3 3 4 4 5 6 8 8 7 5 5 4 4 4 4 4 4 5 5 6 7 9 11 12 13 14 14 15 14 17 18 18 18 18 18 19
7 7 6 7 6 5 5 4 4 4 6 6 7 8 9 8 7 6 5 4 3 4 3 4 4 5 6 7 8 10 10 12 13 14 16 15 15 19 21 21 21 20 20
8 7 6 6 6 6 5 4 5 5 6 6 6 7 9 9 8 7 5 4 3 4 4 3 4 5 5 6 7 8 8 9 12 14 15 15 15 16 20 24 23 23 22
7 7 6 5 5 5 5 4 4 4 5 5 6 8 8 8 8 7 5 4 5 5 4 5 4 5 6 6 7 8 9 9 10 12 14 15 16 17 17 19 23 23 23
6 6 6 6 5 4 3 2 1 2 3 4 5 7 8 8 8 8 5 4 6 6 5 4 4 4 6 7 8 9 9 10 10 11 13 13 15 17 18 18 18 21 25
7 7 6 5 5 4 2 2 2 2 3 4 4 6 7 8 8 7 7 5 6 6 6 7 6 7 7 6 8 9 10 12 12 11 11 11 12 14 16 17 18 18 18
8 8 7 7 6 5 3 2 1 3 3 4 4 4 6 7 8 7 6 8 6 6 7 7 7 8 8 6 7 8 9 8 7 9 8 9 10 9 11 15 17 18 18
9 9 8 8 7 6 4 4 3 3 4 4 5 4 6 7 7 7 7 7 7 8 7 7 8 9 9 7 5 6 6 6 5 4 5 6 5 5 7 9 14 16 18
10 10 9 9 8 7 6 6 6 6 7 6 6 5 6 6 6 6 7 7 7 7 6 8 6 7 8 8 6 5 6 6 6 6 5 4 4 5 6 6 8 12 16
10 10 9 9 9 8 7 6 6 7 6 6 6 5 7 5 5 6 6 6 6 7 6 7 7 8 8 8 8 6 6 6 7 8 8 6 6 5 5 6 7 7 11
9 9 9 9 8 8 8 7 7 6 6 7 7 7 7 6 5 4 5 5 6 6 6 7 7 8 7 8 8 8 8 8 7 7 8 8 7 6 5 6 6 6 7
Wind_Direction
151 144 140 147 143 135 130 130 136 144 150 153 152 149 147 147 146 146 145 144 141 135 121 103 88 83 86 92 99 101 103 109 114 115 116 114 115 121 126 133 139 125 125
145 142 142 147 145 138 131 126 127 131 137 141 142 140 140 140 142 144 146 147 147 142 130 113 95 85 86 94 101 106 111 116 116 120 126 125 120 123 130 137 128 124 130
143 141 148 147 146 141 134 127 125 125 126 129 131 133 134 136 139 144 149 154 156 155 145 131 114 100 97 102 107 113 117 115 118 133 163 137 125 127 128 123 121 131 133
143 145 149 144 146 144 139 133 129 127 127 129 131 134 136 139 144 151 159 165 170 172 168 164 151 131 120 118 120 124 127 121 122 201 178 123 130 128 132 128 132 136 136
141 141 137 146 149 148 146 142 139 137 136 136 139 142 144 148 154 163 173 181 188 190 188 189 184 163 151 146 143 142 139 136 160 236 110 112 118 131 140 140 141 140 141
143 147 139 150 150 152 152 152 151 150 150 149 151 154 158 164 171 180 190 198 202 200 200 205 199 186 174 170 171 169 156 160 218 168 118 136 127 140 150 151 149 148 150
148 143 141 150 152 155 158 160 161 162 163 164 167 171 176 182 190 195 203 210 215 213 211 215 210 201 191 186 188 190 190 210 246 146 149 149 121 142 160 161 159 156 156
147 144 138 147 152 157 162 163 164 167 171 176 183 188 194 201 208 212 215 220 224 224 222 221 221 215 207 201 200 203 208 232 224 206 201 166 121 156 175 173 170 167 163
147 143 145 155 157 159 157 155 160 166 175 184 195 207 216 224 230 230 230 230 232 233 231 227 226 221 216 212 208 210 216 235 250 223 220 191 145 179 193 188 185 181 175
142 142 144 153 149 161 159 145 144 152 181 207 218 229 238 242 240 236 237 228 232 238 239 236 232 228 221 218 216 214 218 229 243 224 223 181 164 194 204 203 198 195 191
136 137 142 139 137 151 151 132 163 166 195 236 222 222 242 249 249 233 234 223 235 241 242 242 238 233 228 222 220 217 219 234 242 238 229 163 176 203 211 211 208 205 203
145 140 132 127 136 144 126 121 122 224 219 269 280 261 256 263 271 270 254 242 249 249 247 241 240 236 232 228 214 210 223 229 250 240 225 171 195 212 220 219 214 211 209
145 141 135 135 131 131 126 112 107 303 316 297 309 301 286 281 272 270 264 246 243 241 244 232 228 233 230 228 226 219 223 231 238 242 229 182 207 222 226 225 220 215 212
143 139 132 127 122 120 120 137 160 3 350 341 342 328 306 287 279 274 268 264 258 252 249 250 241 241 242 236 233 233 229 230 236 238 232 194 212 225 229 231 228 221 215
143 136 127 116 111 122 121 120 88 53 23 25 5 359 332 308 301 296 285 278 269 264 249 247 248 249 248 243 240 235 234 234 237 239 235 214 217 222 229 233 234 230 223
135 130 123 111 106 114 113 98 74 56 44 24 22 14 357 337 332 312 289 282 275 272 276 268 261 257 250 249 247 245 242 239 236 236 239 229 219 220 225 231 234 234 230
137 131 131 128 125 118 110 98 82 61 45 31 27 21 8 354 344 320 300 282 286 274 262 261 263 260 256 253 253 251 247 242 240 237 240 239 231 221 222 227 232 235 235
138 135 138 132 123 114 98 88 77 53 44 34 23 18 13 2 349 321 306 298 303 278 268 265 262 269 270 270 265 260 252 243 240 238 238 235 236 235 225 222 228 231 234
146 146 145 132 131 120 110 99 82 66 41 25 16 14 7 357 351 326 316 327 294 278 274 278 283 288 287 284 276 259 253 246 240 237 237 238 235 234 235 223 220 226 231
163 164 159 155 148 152 146 139 107 47 24 15 14 16 2 355 356 337 313 331 305 289 283 282 290 282 287 283 284 278 263 253 244 239 237 236 234 232 232 233 226 225 227
179 180 181 184 173 192 205 250 295 329 342 348 357 12 357 354 352 341 330 327 308 300 302 289 283 278 275 289 284 277 263 247 240 238 236 237 235 233 232 230 230 230 226
195 198 200 205 205 214 206 247 290 319 317 331 338 351 346 346 338 333 343 316 318 308 284 285 278 287 288 279 287 292 284 259 228 236 232 230 239 237 233 230 228 228 231
209 211 214 215 215 220 217 234 237 252 273 296 324 327 339 331 327 329 324 322 321 302 302 301 288 275 280 279 275 288 293 294 315 245 232 228 228 238 242 238 231 229 228
219 219 220 221 222 220 222 246 269 290 303 318 313 321 321 312 316 316 316 317 315 310 314 294 295 291 275 274 261 257 275 300 293 291 265 237 234 246 253 251 243 231 227
227 227 224 225 227 225 229 235 249 274 294 302 307 306 305 310 308 312 312 313 311 304 317 314 308 292 281 275 277 270 267 263 261 272 283 289 277 261 252 254 253 241 230
231 231 229 225 226 223 227 233 247 272 284 295 298 305 303 307 307 315 307 307 301 309 309 301 300 284 286 288 282 276 272 273 274 277 280 280 281 278 278 269 257 249 234
Height
1538 1538 1538 1541 1544 1546 1548 1550 1552 1554 1555 1557 1558 1559 1560 1561 1561 1562 1562 1563 1563 1564 1565 1565 1566 1566 1566 1566 1566 1566 1566 1566 1566 1566 1566 1566 1566 1566 1567 1567 1569 1570 1571
1538 1538 1540 1542 1545 1547 1550 1552 1554 1555 1557 1558 1559 1560 1561 1562 1563 1563 1564 1564 1564 1565 1566 1566 1566 1567 1567 1567 1567 1567 1567 1567 1567 1567 1567 1568 1568 1568 1569 1570 1571 1572 1573
1539 1540 1541 1544 1547 1549 1551 1553 1555 1557 1558 1559 1560 1561 1562 1563 1563 1564 1564 1565 1565 1566 1566 1567 1567 1567 1568 1568 1568 1568 1568 1568 1569 1569 1569 1571 1570 1570 1571 1572 1573 1573 1575
1541 1542 1544 1546 1548 1551 1553 1555 1556 1558 1559 1560 1561 1562 1563 1564 1564 1564 1565 1565 1566 1566 1567 1567 1568 1568 1568 1569 1569 1569 1569 1570 1570 1571 1573 1573 1573 1572 1573 1574 1575 1576 1577
1543 1545 1545 1548 1550 1552 1554 1556 1558 1559 1560 1561 1562 1563 1564 1564 1565 1565 1565 1566 1566 1566 1567 1568 1568 1568 1569 1569 1570 1570 1570 1571 1572 1573 1574 1574 1574 1574 1574 1575 1576 1577 1578
1545 1547 1547 1549 1552 1554 1556 1557 1559 1560 1561 1562 1563 1564 1565 1565 1565 1565 1566 1566 1566 1567 1567 1568 1568 1569 1569 1570 1570 1571 1571 1572 1573 1576 1576 1576 1576 1575 1576 1577 1578 1579 1580
1548 1550 1549 1551 1553 1555 1557 1558 1560 1561 1562 1563 1564 1564 1565 1565 1565 1565 1566 1566 1566 1567 1567 1568 1568 1569 1569 1570 1571 1571 1572 1573 1574 1576 1576 1577 1576 1576 1577 1578 1579 1580 1581
1549 1551 1550 1552 1554 1556 1557 1559 1560 1561 1562 1563 1563 1564 1564 1565 1565 1565 1565 1565 1566 1566 1566 1567 1568 1568 1569 1570 1570 1571 1572 1573 1575 1577 1577 1578 1576 1576 1577 1578 1579 1581 1582
1550 1552 1552 1554 1555 1556 1557 1558 1559 1560 1561 1562 1562 1563 1563 1564 1564 1564 1564 1564 1565 1565 1566 1566 1567 1567 1568 1569 1570 1571 1571 1573 1575 1576 1577 1577 1577 1577 1577 1578 1580 1581 1583
1550 1552 1553 1555 1556 1557 1558 1558 1558 1559 1560 1561 1561 1561 1562 1562 1562 1562 1563 1563 1563 1563 1564 1564 1565 1566 1567 1567 1568 1569 1570 1571 1574 1575 1576 1576 1576 1577 1577 1578 1579 1581 1582
1550 1552 1554 1555 1556 1557 1558 1558 1559 1559 1559 1560 1560 1560 1560 1561 1562 1562 1561 1561 1561 1561 1562 1562 1563 1564 1564 1565 1566 1567 1568 1570 1573 1574 1575 1575 1575 1576 1577 1578 1579 1580 1581
1550 1551 1552 1554 1555 1557 1558 1558 1558 1559 1559 1559 1560 1559 1559 1559 1559 1560 1559 1558 1559 1559 1559 1560 1560 1561 1562 1563 1564 1564 1566 1568 1570 1571 1572 1572 1573 1575 1576 1577 1578 1579 1580
1550 1551 1552 1554 1555 1556 1557 1557 1558 1558 1558 1558 1558 1557 1557 1557 1556 1557 1557 1556 1556 1556 1557 1557 1557 1558 1559 1560 1561 1562 1563 1565 1566 1568 1569 1568 1570 1572 1573 1575 1576 1578 1579
1551 1551 1552 1554 1554 1555 1556 1557 1557 1557 1557 1557 1556 1555 1554 1555 1554 1554 1554 1554 1554 1554 1553 1554 1554 1555 1556 1556 1557 1558 1559 1560 1562 1564 1564 1564 1566 1568 1570 1572 1574 1575 1577
1551 1552 1553 1554 1554 1555 1556 1557 1558 1557 1557 1556 1555 1554 1553 1553 1552 1552 1551 1551 1551 1551 1551 1550 1550 1551 1551 1552 1553 1554 1554 1555 1556 1558 1559 1559 1561 1563 1565 1567 1569 1571 1573
1551 1552 1553 1554 1555 1556 1557 1557 1557 1557 1556 1556 1554 1553 1551 1551 1550 1550 1549 1548 1548 1548 1548 1547 1547 1547 1547 1548 1548 1549 1549 1550 1550 1552 1553 1555 1555 1557 1559 1562 1564 1567 1569
1551 1552 1554 1555 1556 1556 1557 1557 1557 1557 1556 1555 1553 1551 1550 1549 1548 1547 1547 1547 1546 1545 1544 1544 1544 1544 1544 1544 1544 1544 1544 1544 1545 1546 1547 1549 1550 1551 1553 1555 1558 1561 1563
1551 1552 1554 1556 1556 1556 1557 1557 1557 1556 1555 1554 1552 1550 1548 1546 1545 1545 1545 1545 1543 1543 1543 1542 1542 1542 1542 1541 1540 1540 1540 1539 1539 1540 1541 1542 1544 1545 1547 1548 1551 1554 1556
1552 1553 1554 1555 1556 1556 1557 1557 1556 1555 1554 1552 1551 1549 1546 1544 1543 1543 1543 1542 1541 1541 1541 1540 1540 1539 1539 1538 1537 1536 1535 1535 1535 1535 1536 1536 1537 1538 1540 1542 1543 1546 1549
1552 1553 1554 1555 1556 1556 1557 1556 1556 1555 1554 1552 1550 1546 1544 1543 1541 1540 1540 1538 1539 1539 1538 1538 1537 1536 1535 1534 1533 1533 1531 1531 1530 1531 1531 1531 1532 1532 1533 1535 1537 1539 1542
1552 1553 1554 1555 1555 1556 1556 1557 1556 1555 1553 1551 1549 1545 1543 1541 1539 1537 1538 1536 1535 1536 1535 1535 1534 1534 1533 1531 1530 1529 1527 1526 1526 1525 1526 1526 1527 1526 1527 1528 1530 1532 1535
1552 1552 1553 1554 1555 1555 1555 1554 1553 1552 1551 1549 1547 1544 1541 1539 1537 1537 1534 1534 1533 1532 1531 1531 1530 1530 1530 1529 1528 1526 1524 1523 1520 1521 1521 1521 1521 1521 1521 1522 1523 1525 1527
1551 1552 1553 1553 1553 1553 1553 1552 1551 1550 1549 1548 1546 1543 1540 1537 1535 1533 1532 1531 1529 1529 1529 1527 1527 1527 1526 1526 1525 1525 1522 1519 1518 1518 1517 1517 1517 1517 1517 1517 1518 1518 1520
1549 1550 1550 1550 1550 1550 1550 1550 1550 1549 1547 1545 1543 1541 1538 1535 1533 1531 1529 1527 1526 1526 1525 1524 1524 1523 1523 1523 1522 1522 1521 1520 1519 1516 1516 1515 1514 1514 1514 1513 1514 1514 1515
1547 1548 1548 1548 1548 1547 1547 1546 1546 1545 1544 1543 1540 1538 1535 1533 1530 1528 1526 1525 1523 1523 1521 1520 1519 1519 1520 1520 1520 1519 1519 1518 1517 1516 1513 1513 1512 1511 1511 1510 1510 1510 1511
1544 1544 1545 1544 1544 1544 1543 1543 1542 1541 1540 1538 1537 1535 1534 1532 1529 1527 1524 1522 1521 1520 1518 1517 1516 1516 1516 1515 1515 1516 1516 1515 1514 1513 1511 1510 1509 1508 1507 1507 1507 1507 1507